Location: Rosenheim
(47.8408°N, 12.2113°E)
Time: 13:58:35
(UTC+02:00)

ISS - Pass Details

Date: 29 March 2017
Orbit: 400 x 409 km, 51.6° (Epoch: 23 April)

Event Time Altitude Azimuth Distance (km) Brightness Sun altitude
Rises 20:01:18 0° 205° (SSW) 2,302 0.2 -4.9°
Reaches altitude 10° 20:03:44 10° 187° (S) 1,450 -1.1 -5.3°
Maximum altitude 20:06:08 19° 139° (SE) 1,024 -2.2 -5.7°
Drops below altitude 10° 20:08:34 10° 91° (E) 1,461 -1.7 -6.1°
Enters shadow 20:09:15 - 84° (E) 1,686 -1.3 -6.2°
